Wetterdaten: aktuell Donnerstag, 18.01.2018 18:22
Datum Zeit Temperatur Luftfeuchte Luftdruck Regen Windgeschw. Windrichtung Windrichtung Taupunkt
18.01.2018 18:22 2,3 C 76 % 996 hPa 1,1 l/m 24,3 km/h SO45 140 -1,5 C
18.01.2018 17:23 2,4 C 72 % 995 hPa 0,0 l/m 28,3 km/h S67.5 170 -2,1 C
18.01.2018 16:23 2,2 C 69 % 996 hPa 0,0 l/m 22,6 km/h S-SO67.5 160 -2,9 C
18.01.2018 15:22 2,3 C 66 % 996 hPa 0,0 l/m 28,9 km/h S-SW45 195 -3,4 C
18.01.2018 14:22 1,8 C 66 % 997 hPa 0,0 l/m 35,5 km/h S67.5 190 -3,9 C
18.01.2018 13:23 1,3 C 65 % 999 hPa 0,0 l/m 19,9 km/h S-SW67.5 195 -4,5 C
18.01.2018 12:23 1,3 C 61 % 1000 hPa 0,0 l/m 38,4 km/h S-SW45 195 -5,4 C
18.01.2018 11:23 0,6 C 65 % 1001 hPa 0,0 l/m 16,1 km/h SW45 220 -5,2 C
18.01.2018 10:22 -0,2 C 68 % 1003 hPa 0,0 l/m 25,4 km/h S67.5 170 -5,4 C
18.01.2018 09:23 -0,9 C 69 % 1004 hPa 0,0 l/m 7,7 km/h S-SO22.5 150 -5,9 C
18.01.2018 08:23 -1,8 C 69 % 1005 hPa 0,0 l/m 13,8 km/h S-SO45 165 -6,7 C
18.01.2018 07:23 -2,4 C 68 % 1005 hPa 0,0 l/m 18,1 km/h S-SO45 155 -7,5 C
18.01.2018 06:22 -2,8 C 66 % 1006 hPa 0,0 l/m 19,3 km/h SO22.5 135 -8,2 C
18.01.2018 05:23 -2,7 C 62 % 1006 hPa 0,0 l/m 8,3 km/h S-SO22.5 165 -8,9 C
18.01.2018 04:23 -2,6 C 64 % 1006 hPa 0,0 l/m 12,5 km/h S-SO45 150 -8,4 C
18.01.2018 03:23 -2,6 C 65 % 1006 hPa 0,0 l/m 12,3 km/h S-SO22.5 150 -8,2 C
18.01.2018 02:22 -2,6 C 61 % 1006 hPa 0,0 l/m 7,4 km/h SO22.5 135 -9,1 C
18.01.2018 01:23 -2,5 C 62 % 1005 hPa 0,0 l/m 8,3 km/h S 175 -8,8 C
18.01.2018 00:23 -2,3 C 67 % 1005 hPa 0,0 l/m 15,3 km/h SO45 135 -7,6 C
17.01.2018 23:22 -2,4 C 68 % 1003 hPa 0,0 l/m 17,0 km/h SO45 125 -7,5 C
17.01.2018 22:22 -2,6 C 66 % 1002 hPa 0,0 l/m 2,1 km/h S-SO 165 -8,1 C
17.01.2018 21:23 -2,7 C 67 % 1002 hPa 0,0 l/m 15,7 km/h SO45 140 -8,0 C
17.01.2018 20:23 -2,9 C 65 % 1001 hPa 0,0 l/m 13,7 km/h S-SO22.5 150 -8,5 C
17.01.2018 19:22 -3,0 C 61 % 1001 hPa 0,0 l/m 18,3 km/h S-SO45 160 -9,4 C
17.01.2018 19:02 -3,0 C 61 % 1000 hPa 0,0 l/m 13,7 km/h S-SO45 160 -9,4 C
_ Min-Zeit 19:02 19:02 16:38 - 00:28 - - 19:02
Minimum _ -3,0 C 61 % 995 hPa - 0,9 km/h - - -9,4 C
_ Max-Zeit 17:23 18:22 02:02 17:58 16:43 - - 18:22
Maximum _ 2,4 C 76 % 1006 hPa 0,4 l/m 49,2 km/h
S-SW
- - -1,5 C
Durchschnitt _ -1,0 C 66 % 1002 hPa #1,1 l/m 18,3 km/h S-SO - -6,5 C